• MPC Preparation (Info)

  • MPEC 2003-O30 : 2003 OQ13

    The following Minor Planet Electronic Circular may be linked-to from your own Web pages, but must not otherwise be redistributed electronically.

    A form allowing access to any MPEC is at the bottom of this page.


    Read MPEC 2003-O29 Read MPEC 2003-O31


    M.P.E.C. 2003-O30                                Issued 2003 July 30, 11:44 UT
    
         The Minor Planet Electronic Circulars contain information on unusual
             minor planets and routine data on comets.  They are published
       on behalf of Commission 20 of the International Astronomical Union by the
              Minor Planet Center, Smithsonian Astrophysical Observatory,
                              Cambridge, MA 02138, U.S.A.
    
                 Prepared using the Tamkin Foundation Computer Network
    
                                  MPC@CFA.HARVARD.EDU
              URL http://cfa-www.harvard.edu/iau/mpc.html  ISSN 1523-6714
    
                                       2003 OQ13
    
    Observations:
         K03O13Q* C2003 07 25.36900 23 49 00.15 -10 53 46.2          18.5        704
         K03O13Q  C2003 07 25.37903 23 49 01.95 -10 54 46.1          18.8        704
         K03O13Q  C2003 07 25.38919 23 49 03.85 -10 55 46.9          19.1        704
         K03O13Q  C2003 07 25.39916 23 49 05.69 -10 56 46.6          18.6        704
         K03O13Q  C2003 07 25.94925 23 50 55.95 -11 51 21.4          18.1 V      A50
         K03O13Q  C2003 07 25.94998 23 50 56.11 -11 51 24.1          18.0 V      A50
         K03O13Q  C2003 07 25.95257 23 50 56.52 -11 51 38.9                      A50
         K03O13Q  C2003 07 26.01415 23 51 09.43 -11 57 37.7          18.1 R      J87
         K03O13Q  C2003 07 26.01854 23 51 10.23 -11 58 05.0          18.1 R      J87
         K03O13Q  C2003 07 26.02155 23 51 10.88 -11 58 23.3          18.2 R      J87
         K03O13Q  C2003 07 26.03464 23 51 12.22 -11 59 47.1                      557
         K03O13Q  C2003 07 26.03627 23 51 12.53 -11 59 56.3                      557
         K03O13Q  C2003 07 26.03825 23 51 12.87 -12 00 08.5                      557
         K03O13Q +C2003 07 26.30806 23 52 05.90 -12 25 39.9          18.5 R      807
         K03O13Q +C2003 07 26.30869 23 52 05.93 -12 25 44.4          18.1 R      807
         K03O13Q +C2003 07 26.30933 23 52 06.10 -12 25 47.4          17.7 R      807
         K03O13Q +C2003 07 26.30995 23 52 06.21 -12 25 50.2          17.9 R      807
         K03O13Q +C2003 07 26.31059 23 52 06.39 -12 25 53.4          18.8 R      807
         K03O13Q  C2003 07 27.04179 23 54 30.13 -13 39 00.8          18.1 R      176
         K03O13Q  C2003 07 27.04271 23 54 30.32 -13 39 06.3          17.7 R      176
         K03O13Q  C2003 07 27.04363 23 54 30.52 -13 39 12.2          17.7 R      176
         K03O13Q  C2003 07 27.04455 23 54 30.72 -13 39 17.2          17.8 R      176
         K03O13Q  C2003 07 27.04592 23 54 30.95 -13 39 25.9          17.9 R      176
         K03O13Q +C2003 07 27.32797 23 55 24.16 -14 06 08.9          18.4 R      807
         K03O13Q +C2003 07 27.32948 23 55 24.45 -14 06 17.3          17.4 R      807
         K03O13Q +C2003 07 27.33023 23 55 24.58 -14 06 21.9          17.6 R      807
         K03O13Q +C2003 07 27.33174 23 55 24.76 -14 06 30.8          18.5 R      807
         K03O13Q  C2003 07 27.35752 23 55 31.16 -14 09 59.1          18.2        704
         K03O13Q  C2003 07 27.36652 23 55 32.72 -14 10 52.9          17.8        704
         K03O13Q  C2003 07 27.36737 23 55 32.86 -14 10 57.5          18.1        704
         K03O13Q  C2003 07 27.37676 23 55 34.53 -14 11 53.2          18.8        704
         K03O13Q  C2003 07 27.37729 23 55 34.61 -14 11 57.1          18.9        704
         K03O13Q  C2003 07 27.38712 23 55 36.35 -14 12 54.9          18.3        704
         K03O13Q  C2003 07 27.38721 23 55 36.35 -14 12 55.2          18.2        704
         K03O13Q  C2003 07 27.39708 23 55 38.07 -14 13 53.5          18.5        704
         K03O13Q  C2003 07 27.39760 23 55 38.16 -14 13 56.7          18.0        704
         K03O13Q  C2003 07 27.40799 23 55 39.97 -14 14 58.9          19.1        704
         K03O13Q  C2003 07 27.77942 23 56 49.25 -14 50 27.4          18.1 V      428
         K03O13Q  C2003 07 27.78279 23 56 49.78 -14 50 46.9          18.4 V      428
         K03O13Q  C2003 07 27.78619 23 56 50.38 -14 51 06.1          18.0 V      428
         K03O13Q +C2003 07 28.33407 23 58 36.03 -15 44 36.6          17.1 R      807
         K03O13Q +C2003 07 28.33483 23 58 36.15 -15 44 41.0          17.2 R      807
         K03O13Q +C2003 07 28.33633 23 58 36.41 -15 44 49.9          17.7 R      807
         K03O13Q  C2003 07 28.73252 23 59 50.40 -16 23 23.5          18.5 V      428
         K03O13Q  C2003 07 28.73593 23 59 51.01 -16 23 43.6          18.2 V      428
         K03O13Q  C2003 07 28.73941 23 59 51.63 -16 24 04.4          18.4 V      428
         K03O13Q  C2003 07 29.35672 00 01 48.40 -17 24 41.0          17.8        704
         K03O13Q  C2003 07 29.36653 00 01 50.00 -17 25 37.6          18.0        704
         K03O13Q  C2003 07 29.36658 00 01 50.00 -17 25 38.7          17.3        704
         K03O13Q  C2003 07 29.37643 00 01 51.63 -17 26 36.1          17.9        704
         K03O13Q  C2003 07 29.37791 00 01 51.91 -17 26 45.0          18.2        704
         K03O13Q  C2003 07 29.38569 00 01 53.43 -17 27 28.5          18.5 R      854
         K03O13Q  C2003 07 29.38626 00 01 53.22 -17 27 34.2          17.6        704
         K03O13Q  C2003 07 29.38892 00 01 53.68 -17 27 48.9          18.1        704
         K03O13Q  C2003 07 29.39245 00 01 54.56 -17 28 08.2          18.3 R      854
         K03O13Q  C2003 07 29.39412 00 01 54.88 -17 28 16.4          18.3 R      854
         K03O13Q  C2003 07 29.39616 00 01 54.88 -17 28 31.0          17.6        704
         K03O13Q  C2003 07 29.39995 00 01 55.53 -17 28 52.4          18.1        704
         K03O13Q  C2003 07 30.30628 00 04 41.73 -18 55 42.7                      649
         K03O13Q  C2003 07 30.30806 00 04 41.99 -18 55 53.9          18.3 R      649
         K03O13Q  C2003 07 30.30983 00 04 42.34 -18 56 03.9          18.2 R      649
    
    Observer details:
    176 Observatori Astronomic de Consell.  Observers A. Lopez, R. Pacheco.
        0.41-m reflector + CCD, 0.2-m f/3.3 Schmidt-Cassegrain + CCD.
    428 Reedy Creek.  Observer J. Broughton.  0.25-m f/7.2 Schmidt-Cassegrain
        + CCD.
    557 Ondrejov.  Observer L. Sarounova.  0.65-m f/3.6 reflector + CCD.
    649 Powell Observatory, Louisburg.  Observers R. Fredrick, R. Trentman.
        0.75-m Newtonian + CCD.
    704 Lincoln Laboratory ETS, New Mexico.  Observers M. Blythe, F. Shelly,
        M. Bezpalko, R. Huber, L. Manguso, S. Adams, D. Torres, T. Brothers,
        S. Partridge.  Measurers J. Stuart, R. Sayer, J. Evans, P. Hopman.  1.0-m
        f/2.15 reflector + CCD.
    807 Cerro Tololo.  Observers I. Griffin, Alberto Miranda.  Measurer I. Griffin.
        4-m Blanco reflector + CCD.
    854 Sabino Canyon Observatory, Tucson.  Observer J. E. McGaha.  0.30-m f/10.0
        Schmidt-Cassegrain + CCD.
    A50 Andrushivka Astronomical Observatory.  Observers Y. Ivashchenko,
        G. Kovalchuk, V. Lokot.  0.6-m reflector + CCD.
    J87 La Canada.  Observer J. Lacruz.  0.30-m f/3.3 Schmidt-Cassegrain + CCD.
    
    Orbital elements:
    2003 OQ13
    Epoch 2003 July 20.0 TT = JDT 2452840.5                 MPC
    M  19.21523              (2000.0)            P               Q
    n   0.66220925     Peri.  152.80916     +0.13071809     +0.96401167
    a   1.3035846      Node   123.83361     -0.95273212     +0.18673881
    e   0.1613355      Incl.   16.18263     -0.27425225     -0.18923561
    P   1.49           H   20.5           G   0.15
    From 62 observations 2003 July 25-30.
    
    Ephemeris:
    2003 OQ13                a,e,i = 1.30, 0.16, 16                  q = 1.0933
    Date    TT    R. A. (2000) Decl.     Delta      r     Elong.  Phase     V
    2003 07 30    00 03.74   -18 25.7    0.155    1.122   130.8    43.3    18.4
    2003 08 09    00 29.93   -32 49.4    0.173    1.138   132.8    40.8    18.6
    2003 08 19    00 46.67   -43 17.8    0.202    1.157   131.7    40.8    18.9
    2003 08 29    00 52.86   -50 02.9    0.239    1.177   129.7    41.3    19.4
    2003 09 08    00 49.79   -53 47.0    0.281    1.200   127.6    41.7    19.8
    2003 09 18    00 40.94   -55 08.2    0.325    1.223   125.6    41.9    20.1
    2003 09 28    00 30.47   -54 34.6    0.372    1.247   123.6    42.0    20.5
    2003 10 08    00 22.18   -52 30.0    0.422    1.272   121.5    42.0    20.8
    2003 10 18    00 17.92   -49 18.8    0.475    1.296   119.3    42.1    21.1
    2003 10 28    00 17.97   -45 20.7    0.531    1.321   116.7    42.2    21.4
    2003 11 07    00 21.99   -40 51.6    0.591    1.344   113.9    42.4    21.6
    2003 11 17    00 29.23   -36 05.2    0.655    1.367   110.8    42.5    21.9
    
    Timothy B. Spahr             (C) Copyright 2003 MPC           M.P.E.C. 2003-O30
    

    Read MPEC 2003-O29 Read MPEC 2003-O31


    MPEC number:

    Enter an MPEC number in one of the following forms:

    • 1997-B01 (the full form)
    • J97B01 (the packed version of the full form)
    • B01 (the abbreviated form)